User: anonymous   Login
Location: Chateh
(58.6667°N, 118.6000°W)
Time: 04:17:33
(UTC+00:00)
Language:

CAS-6 - Orbit

View from above orbital plane
View from above orbital plane
View from above satellite
View from above satellite

Ground track
Ground track

The orbit data is extracted from the following two-line orbital elements,

1 44881U 19093C   23340.78244933  .00001204  00000-0  15432-3 0  9994
2 44881  97.8489  56.2215 0013480 231.7031 128.2971 14.83055375214374
Epoch (UTC): 06 December 2023 18:46:43
Eccentricity: 0.0013480
inclination: 97.8489°
perigee height: 610 km
apogee height: 629 km
right ascension of ascending node: 56.2215°
argument of perigee: 231.7031°
revolutions per day: 14.83055375
mean anomaly at epoch: 128.2971°
orbit number at epoch: 21437

The dashed part of the orbit path shows where the satellite is in the earth's shadow,  

DLR